COSMOS 2251 DEB, 34273

Orbit data source: Space-Track

COSMOS 2251 DEB, 34273 is space debris in LEO originally from a launch on Wed, 16 Jun 1993 UTC launched from the Plesetsk Missile And Space Complex (PKMTR). The debris from Iridium 33, an American commercial communications satellite, has been tracked extensively since its accidental collision with the defunct Russian satellite Cosmos 2251 in 2009. This event, occurring at high speed in low Earth orbit (LEO), generated thousands of pieces of space debris, significantly increasing the risk of further collisions. The Iridium 33 debris cloud has impacted space traffic management and orbital debris mitigation strategies, making it a subject of ongoing study in space situational awareness.

Loading next visibility...
Identifier
34273, 1993-036LT
Orbit
LEO
Country
Flag of CISCIS
Related business
Manufacturer
Unknown
Mission
Spacecraft
Bus & Motor
Unknown
Mass
Unknown
Launch date (UTC)
1993-06-16 (33 years ago)
Launch vehicle
Unknown
Launch site
Plesetsk Missile And Space Complex (PKMTR)
Object type
Payload
Rocket body
Debris
Shape & HBR
Unknown shape, 0.1 m
Radar Cross Section
Medium (>0.1 m² and <1 m²)

Expand to show TLE details & history
Last TLE update: 19 hours ago

TLE from 19 hours ago
0 COSMOS 2251 DEB
1 34273U 93036LT  26208.93246139  .00004049  00000-0  79373-3 0  9994
2 34273  74.0360  12.3210 0014927  72.7299  82.9245 14.63016186919420
Epoch: 2026-07-27T22:22Z
TLE epoch observation values (Epoch: 2026-07-27T22:22:44.664Z)
Latitude
23.21453°
Longitude
-95.98348°
Altitude
684.701 km
Speed
7.517 km/s
True Right ascension
12h 21m 14s
True Declination
23° 05' 20"
Sunlit
Object was in daylight at epoch
Visualization orbit readout
Latitude
Unknown
Longitude
Unknown
Altitude
Unknown
Speed
Unknown
Apparent Right ascension
Unknown
Apparent Declination
Unknown
Sunlit
N/A
Visualization observer readout
Local Sidereal Time
06:29:49
Azimuth
Unknown
Elevation
Unknown
Doppler factor
Unknown
Orbital elements
Apogee altitude
691.583 km
Perigee altitude
670.509 km
Semi-major axis
7,059.183 km
Eccentricity
0.00149
Inclination
74.036°
RAAN
12.321°
Arg. of periapsis
72.7299°
True anomaly
83.09429°
Mean anomaly
82.9245°
Eccentric anomaly
83.00939°
Mean motion
3.65941 °/min
Orbital period
98.38 mins
BSTAR
0.00079373
Loading maneuver chart data...
Computing Atmospheric mass density...

Documentation

Showing up to 5 results
|